Hourly Data Report for March 26, 2021

OTTAWA INTL A
ONTARIO
Current Station Operator: NAVCAN

45°19'00.000" N
75°40'00.000" W
114.90 m
6106001
71628
YOW

Download Data

Hourly Data (March 2021)
Hourly Data Report for March 26, 2021
TIME
LST
Temp Definition
°C
Dew Point Definition
°C
Rel Hum Definition
%
Precip. Amount Definition
mm

Wind Dir Definition
10's deg

Wind Spd Definition
km/h
Visibility Definition
km
Stn Press Definition
kPa
Hmdx Definition


Wind Chill Definition


Weather Definition


00:00 10.2 4.4 67   1 21 24.1 99.63     Rain
01:00 9.2 5.1 75   3 12 24.1 99.60     Rain
02:00 8.1 5.7 85   2 15 24.1 99.59     Rain
03:00 7.0 5.8 92   6 16 24.1 99.40     LegendNANA
04:00 6.6 5.5 93   5 20 24.1 99.27     Rain
05:00 6.4 5.4 93   6 20 24.1 99.16     Rain
06:00 6.0 5.3 95   4 17 24.1 99.03     Rain
07:00 6.1 5.6 97   5 26 8.1 98.87     Rain, Fog
08:00 6.0 5.5 96   5 46 6.4 98.65     Moderate Rain, Fog
09:00 5.7 5.2 97   6 28 8.1 98.58     Rain, Fog
10:00 5.7 5.3 98   6 24 6.4 98.42     Rain, Fog
11:00 6.1 5.8 98   1 16 24.1 98.39     LegendNANA
12:00 6.8 6.4 97   1 17 8.1 98.40     Rain, Fog
13:00 6.1 5.5 96   35 21 9.7 98.49     Rain, Fog
14:00 5.0 4.0 93   33 29 9.7 98.58     Rain, Drizzle, Fog
15:00 4.4 3.6 94   32 28 4.8 98.76     Rain, Drizzle, Fog
16:00 3.3 2.4 94   31 30 6.4 98.99     Rain, Fog
17:00 3.1 2.0 92   30 35 16.1 99.29     Rain
18:00 1.8 0.9 94   29 31 16.1 99.53     Rain
19:00 1.8 0.8 93   29 28 24.1 99.73     Rain
20:00 1.3 0.4 94   29 23 24.1 99.94     Rain
21:00 0.9 -0.2 93   29 25 24.1 100.07     LegendNANA
22:00 0.6 -0.5 92   28 27 24.1 100.13     Mostly Cloudy
23:00 0.4 -0.8 91   27 23 24.1 100.25     LegendNANA

Notes on Data Quality.

Legend

  • E = Estimated
  • M = Missing
  • NA = Not Available*
  • [empty] = Indicates an unobserved value
Date modified: